GW6460 Weather Reports


time (UTC)temp
F
wind
direction
speed
knots
gust
knots
rain 1hr
in
rain 24hr
in
rain mn
in
humidity
%
barometer
mb
20260508004411 53 245 3.5 8.7 0.00 0.00 0.13 56
20260508003731 53 217 3.5 9.6 0.00 0.00 0.12 59
20260508003051 54 215 5.2 23.5 0.00 0.00 0.11 56
20260508002411 58 340 13.9 23.5 0.00 0.00 0.00 48
20260508001731 61 351 4.3 7.8 0.00 0.00 0.00 38
20260508000412 61 267 1.7 5.2 0.00 0.00 0.00 45
20260507232412 63 240 7.0 9.6 0.00 0.00 0.00 35
20260507230411 64 259 4.3 11.3 0.00 0.00 0.00 32
20260507225731 65 230 7.0 11.3 0.00 0.00 0.00 32
20260507225051 64 240 7.0 13.9 0.00 0.00 0.00 32
20260507224411 65 237 7.0 10.4 0.00 0.00 0.00 32
20260507223051 63 225 6.1 9.6 0.00 0.00 0.00 34
20260507221732 64 204 4.3 8.7 0.00 0.00 0.00 33
20260507215732 56 288 4.3 10.4 0.00 0.00 0.00 50
20260507215051 56 276 5.2 17.4 0.00 0.00 0.00 52
20260507214413 56 270 7.0 17.4 0.00 0.00 0.00 49
20260507213051 58 264 7.0 17.4 0.00 0.00 0.00 46
20260507212411 62 243 7.8 13.0 0.00 0.00 0.00 38
20260507211731 62 232 7.0 10.4 0.00 0.00 0.00 35
20260507211051 63 235 6.1 9.6 0.00 0.00 0.00 34
20260507210411 64 243 5.2 7.8 0.00 0.00 0.00 32
20260507205732 65 229 4.3 7.0 0.00 0.00 0.00 30
20260507203732 67 223 5.2 8.7 0.00 0.00 0.00 26
20260507203051 67 206 4.3 7.8 0.00 0.00 0.00 29
20260507202411 66 200 4.3 13.0 0.00 0.00 0.00 29
20260507201731 68 209 6.1 13.0 0.00 0.00 0.00 27
20260507201051 67 206 5.2 8.7 0.00 0.00 0.00 29
20260507200411 67 226 5.2 8.7 0.00 0.00 0.00 28
20260507195051 66 173 2.6 7.8 0.00 0.00 0.00 29
20260507194411 67 201 4.3 7.8 0.00 0.00 0.00 28
20260507193731 66 226 4.3 8.7 0.00 0.00 0.00 27
20260507193051 66 232 5.2 8.7 0.00 0.00 0.00 29
20260507191731 66 195 4.3 9.6 0.00 0.00 0.00 32
20260507191051 66 209 4.3 9.6 0.00 0.00 0.00 30
20260507190411 66 187 3.5 9.6 0.00 0.00 0.00 29
20260507185731 65 222 5.2 10.4 0.00 0.00 0.00 32
20260507185051 63 207 4.3 8.7 0.00 0.00 0.00 33
20260507184412 64 231 5.2 11.3 0.00 0.00 0.00 34
20260507183731 64 204 5.2 11.3 0.00 0.00 0.00 32
20260507183051 65 222 6.1 9.6 0.00 0.00 0.00 33
20260507182412 65 220 5.2 9.6 0.00 0.00 0.00 30
20260507181731 65 244 5.2 9.6 0.00 0.00 0.00 32
20260507181051 64 238 5.2 9.6 0.00 0.00 0.00 33
20260507180411 64 195 5.2 8.7 0.00 0.00 0.00 33
20260507175731 64 237 4.3 10.4 0.00 0.00 0.00 33
20260507175051 63 205 4.3 10.4 0.00 0.00 0.00 33
20260507174411 64 198 6.1 8.7 0.00 0.00 0.00 32
20260507173731 62 213 5.2 8.7 0.00 0.00 0.00 33
20260507173051 61 222 4.3 10.4 0.00 0.00 0.00 34
20260507171731 61 188 4.3 8.7 0.00 0.00 0.00 34
20260507171051 62 211 4.3 9.6 0.00 0.00 0.00 34
20260507170411 62 197 4.3 10.4 0.00 0.00 0.00 34
20260507165731 62 227 6.1 10.4 0.00 0.00 0.00 34
20260507164411 61 193 5.2 9.6 0.00 0.00 0.00 36
20260507163731 62 202 4.3 7.0 0.00 0.00 0.00 35
20260507163051 61 235 4.3 7.0 0.00 0.00 0.00 35
20260507162411 59 199 2.6 7.0 0.00 0.00 0.00 37
20260507161051 57 235 4.3 7.0 0.00 0.00 0.00 40
20260507160411 57 236 4.3 7.8 0.00 0.00 0.00 41
20260507155731 56 240 3.5 7.0 0.00 0.00 0.00 44
20260507155051 56 232 4.3 7.0 0.00 0.00 0.00 45
20260507154411 55 235 4.3 7.8 0.00 0.00 0.00 46
20260507153051 55 232 3.5 5.2 0.00 0.00 0.00 46
20260507152411 56 237 1.7 2.6 0.00 0.00 0.00 45
20260507151731 56 312 0.9 3.5 0.00 0.00 0.00 39
20260507151051 56 310 1.7 6.1 0.00 0.00 0.00 40
20260507150411 56 309 2.6 6.1 0.00 0.00 0.00 39
20260507145732 56 309 3.5 6.1 0.00 0.00 0.00 39
20260507143051 55 315 5.2 8.7 0.00 0.00 0.00 42
20260507142411 53 318 5.2 8.7 0.00 0.00 0.00 44
20260507141731 52 319 4.3 6.1 0.00 0.00 0.00 45
20260507141051 52 334 4.3 7.0 0.00 0.00 0.00 46
20260507140411 51 356 3.5 8.7 0.00 0.00 0.00 47
20260507135731 51 351 6.1 10.4 0.00 0.00 0.00 46
20260507135051 50 340 7.0 10.4 0.00 0.00 0.00 48
20260507134411 50 341 7.0 11.3 0.00 0.00 0.00 48
20260507133731 50 349 7.0 10.4 0.00 0.00 0.00 47
20260507133051 48 345 7.8 11.3 0.00 0.00 0.00 50
20260507132411 48 342 7.8 11.3 0.00 0.00 0.00 50
20260507131731 48 332 6.1 7.8 0.00 0.00 0.00 51
20260507131050 47 330 5.2 7.0 0.00 0.00 0.00 53
20260507130410 47 322 5.2 7.8 0.00 0.00 0.00 54
20260507125730 47 323 5.2 7.8 0.00 0.00 0.00 53
20260507125050 48 319 4.3 7.0 0.00 0.00 0.00 52
20260507124410 49 310 3.5 7.0 0.00 0.00 0.00 52
20260507123730 48 308 3.5 7.0 0.00 0.00 0.00 55
20260507122410 48 281 3.5 6.1 0.00 0.00 0.00 61
20260507121050 48 293 2.6 7.8 0.00 0.00 0.00 60
20260507120410 48 279 1.7 6.1 0.00 0.00 0.00 56
20260507115730 49 286 1.7 5.2 0.00 0.00 0.00 52
20260507115050 48 305 2.6 5.2 0.00 0.00 0.00 51
20260507114410 48 278 1.7 5.2 0.00 0.00 0.00 50
20260507113730 48 298 2.6 4.3 0.00 0.00 0.00 49
20260507113050 48 298 2.6 4.3 0.00 0.00 0.00 49
20260507110410 48 280 0.9 4.3 0.00 0.00 0.00 47
20260507105730 48 305 2.6 5.2 0.00 0.00 0.00 47
20260507105050 48 272 1.7 7.8 0.00 0.00 0.00 48
20260507103731 49 338 5.2 7.0 0.00 0.00 0.00 47
20260507103051 50 346 5.2 7.0 0.00 0.00 0.00 47
20260507102411 51 349 5.2 9.6 0.00 0.00 0.00 48
20260507101731 52 315 4.3 9.6 0.00 0.00 0.00 49
20260507101051 52 356 2.6 5.2 0.00 0.00 0.00 47
20260507100411 52 353 1.7 5.2 0.00 0.00 0.00 44
20260507095731 53 311 2.6 6.1 0.00 0.00 0.00 52
20260507095051 54 285 2.6 9.6 0.00 0.00 0.00 54
20260507094411 54 242 3.5 13.0 0.00 0.00 0.00 52
20260507093731 56 241 5.2 13.0 0.00 0.00 0.00 47
20260507092411 54 286 4.3 8.7 0.00 0.00 0.00 45
20260507091731 54 296 2.6 8.7 0.00 0.00 0.00 45
20260507091051 54 305 5.2 8.7 0.00 0.00 0.00 44
20260507090411 54 300 4.3 8.7 0.00 0.00 0.00 45
20260507085051 54 306 5.2 7.8 0.00 0.00 0.00 46
20260507083731 54 315 5.2 10.4 0.00 0.00 0.00 47
20260507083051 54 319 6.1 10.4 0.00 0.00 0.00 47
20260507082411 53 322 6.1 9.6 0.00 0.00 0.00 49
20260507081731 54 331 7.0 12.2 0.00 0.00 0.00 48
20260507080411 57 341 9.6 15.6 0.00 0.00 0.00 44
20260507075731 57 354 8.7 15.6 0.00 0.00 0.00 43
20260507075051 57 301 6.1 15.6 0.00 0.00 0.00 40
20260507074411 53 15 4.3 8.7 0.00 0.00 0.00 51
20260507073731 55 17 5.2 8.7 0.00 0.00 0.00 47
20260507073051 57 270 3.5 8.7 0.00 0.00 0.00 43
20260507071051 55 266 3.5 7.8 0.00 0.00 0.00 49
20260507065731 55 259 2.6 7.0 0.00 0.00 0.00 50
20260507065051 55 267 3.5 7.8 0.00 0.00 0.00 50
20260507064411 55 265 3.5 7.8 0.00 0.00 0.00 50
20260507063731 55 255 4.3 7.0 0.00 0.00 0.00 50
20260507063051 54 254 3.5 7.0 0.00 0.00 0.00 50
20260507062411 54 263 3.5 7.0 0.00 0.00 0.00 51
20260507061731 54 257 2.6 6.1 0.00 0.00 0.00 51
20260507061051 53 240 3.5 6.1 0.00 0.00 0.00 52
20260507060411 53 241 3.5 6.1 0.00 0.00 0.00 54
20260507055731 53 234 3.5 6.1 0.00 0.00 0.00 52
20260507054411 54 243 3.5 7.0 0.00 0.00 0.00 49
20260507053731 54 239 4.3 7.0 0.00 0.00 0.00 49
20260507053051 55 239 3.5 7.0 0.00 0.00 0.00 47
20260507052411 56 237 3.5 7.8 0.00 0.00 0.00 45
20260507051731 57 245 3.5 8.7 0.00 0.00 0.00 42
20260507051051 58 259 4.3 9.6 0.00 0.00 0.00 39
20260507050411 59 265 4.3 9.6 0.00 0.00 0.00 38
20260507045731 59 261 5.2 9.6 0.00 0.00 0.00 37
20260507045051 59 270 5.2 10.4 0.00 0.00 0.00 37
20260507044411 59 267 4.3 11.3 0.00 0.00 0.00 37
20260507043731 59 265 5.2 11.3 0.00 0.00 0.00 37
20260507043051 59 268 5.2 10.4 0.00 0.00 0.00 36
20260507041731 59 255 4.3 9.6 0.00 0.00 0.00 37
20260507041051 59 268 5.2 9.6 0.00 0.00 0.00 36
20260507040411 59 260 4.3 8.7 0.00 0.00 0.00 36
20260507035731 59 264 5.2 9.6 0.00 0.00 0.00 37
20260507034411 59 249 5.2 7.8 0.00 0.00 0.00 38
20260507033731 59 259 3.5 7.0 0.00 0.00 0.00 38
20260507033051 60 260 3.5 8.7 0.00 0.00 0.00 37
20260507032411 60 260 4.3 8.7 0.00 0.00 0.00 36
20260507031731 60 255 3.5 7.8 0.00 0.00 0.00 36
20260507031051 60 249 4.3 8.7 0.00 0.00 0.00 36
20260507025731 61 252 3.5 8.7 0.00 0.00 0.00 35
20260507025051 61 255 3.5 8.7 0.00 0.00 0.00 35
20260507024411 62 250 3.5 7.0 0.00 0.00 0.00 34
20260507023731 62 260 3.5 7.8 0.00 0.00 0.00 34
20260507023051 62 258 3.5 7.8 0.00 0.00 0.00 33
20260507022411 63 256 5.2 9.6 0.00 0.00 0.00 33
20260507021731 63 254 4.3 9.6 0.00 0.00 0.00 32
20260507020411 64 255 6.1 10.4 0.00 0.00 0.00 31
20260507015051 64 257 6.1 12.2 0.00 0.00 0.00 29
20260507014411 65 262 5.2 13.9 0.00 0.00 0.00 29
20260507013731 65 264 6.1 13.9 0.00 0.00 0.00 29
20260507012411 66 264 6.1 13.0 0.00 0.00 0.00 27
20260507011731 66 258 6.1 15.6 0.00 0.00 0.00 27
20260507011051 66 259 7.8 15.6 0.00 0.00 0.00 26
20260507010411 66 267 7.8 15.6 0.00 0.00 0.00 26
20260507005731 66 262 7.0 15.6 0.00 0.00 0.00 25
20260507005051 67 261 7.0 13.9 0.00 0.00 0.00 25